Location: Litvinovka
(48.6667°N, 34.3500°E)
Time: 05:34:08
(UTC+00:00)

Cosmos 2263 Rocket - Pass Details

Date: 18 September 2020
Orbit: 822 x 849 km, 71.0° (Epoch: 18 October)

Event Time Altitude Azimuth Distance (km) Brightness Sun altitude
Rises 17:50:47 0° 236° (SW) 3,351 5.7 -20.2°
Reaches altitude 10° 17:53:26 10° 246° (WSW) 2,424 5.1 -20.6°
Maximum altitude 17:58:27 34° 310° (NW) 1,339 3.8 -21.3°
Drops below altitude 10° 18:03:32 10° 15° (NNE) 2,450 4.8 -22.1°
Sets 18:06:13 0° 25° (NNE) 3,391 5.4 -22.5°
